Regional Weather Roundup
Issued by NWS

Home | Current Version | Previous Version | Text Only | Print | Product List | Glossary Off
Versions: 1 2 3 4 5 6 7 8 9 10 11 12 13 14 15 16 17 18 19 20 21 22 23 24 25 26 27 28 29 30 31 32 33 34 35 36 37 38 39 40 41 42 43 44 45 46 47 48 49 50

043
ASUS44 KJAN 170810
RWRMS

MISSISSIPPI HOURLY WEATHER ROUNDUP
NATIONAL WEATHER SERVICE JACKSON MS
300 AM CDT WED SEP 17 2014

NOTE: "FAIR: INDICATES FEW OR NO CLOUDS BELOW 12,000 FEET WITH NO
SIGNIFICANT WEATHER AND/OR OBSTRUCTIONS TO VISIBILITY.

MSZ001>002-007>008-010>013-018>021-025>028-034>036-170900-
NORTHWEST MISSISSIPPI

CITY           SKY/WX    TMP DP  RH WIND       PRES   REMARKS
CLARKSDALE     FAIR      66  66 100 NE3       30.02F
CLEVELAND      FAIR      67  67 100 N5        30.00F
GREENWOOD      CLEAR     70  67  90 N6        30.00F
GREENVILLE     CLEAR     69  66  90 N5        29.99F
GRENADA        FAIR      68  64  88 N3        30.02S
OLIVE BRANCH   CLEAR     61  61 100 NE6       30.03F
OXFORD         FAIR      63  63 100 NE3       30.04F
TUNICA         SUNNY     63  61  94 N3        30.03F FOG
$$

MSZ003>006-009-014>017-022>024-029>033-037>039-170900-
NORTHEAST MISSISSIPPI

CITY           SKY/WX    TMP DP  RH WIND       PRES   REMARKS
COLUMBUS AFB   CLEAR     68  67  97 N2        30.00F
CORINTH          N/A    N/A N/A N/A MISG        N/A
GOLDN TRIANGLE CLEAR     70  64  83 N5        30.00F
STARKVILLE     FAIR      68  66  94 N3        30.00S
TUPELO         CLEAR     65  62  90 NE6       30.01F
$$

MSZ040-058-170900-
CENTRAL MISSISSIPPI

CITY           SKY/WX    TMP DP  RH WIND       PRES   REMARKS
JACKSON INTL   CLEAR     70  68  93 CALM      29.98F
JACKSON HAWKNS CLEAR     73  70  90 NW3       29.98F
MERIDIAN KEY   CLEAR     69  68  96 CALM      29.98F
MERIDIAN NAS   CLEAR     70  67  90 CALM      29.98F
RAYMOND        FAIR      70  64  83 CALM      29.98F HAZE
VICKSBURG      MOCLDY    71  69  93 N3        29.97F
$$

MSZ059>079-170900-
SOUTH MISSISSIPPI

CITY           SKY/WX    TMP DP  RH WIND       PRES   REMARKS
BROOKHAVEN     FAIR      70  70 100 CALM      30.00S FOG
HATTIESBURG    PTCLDY    70  69  97 CALM      29.97F
MCCOMB         MOCLDY    72  71  97 CALM      29.98F FOG
NATCHEZ        PTCLDY    72  70  94 CALM      29.98F
PINE BELT      PTCLDY   N/A N/A N/A CALM      29.97F VSB 1
$$

MSZ080>082-170900-
COASTAL MISSISSIPPI

CITY           SKY/WX    TMP DP  RH WIND       PRES   REMARKS
BILOXI         CLOUDY    74  71  89 VRB2      29.95F
PASCAGOULA     CLOUDY    72  71  97 CALM      29.95F
GULFPORT       CLOUDY    73  71  93 CALM      29.95F
$$



USA.gov is the U.S. government's official web portal to all federal, state and local government web resources and services.